Location: Muenchen
(48.1800°N, 11.5800°E)
Time: 12:09:12
(UTC+02:00)

ISS - Visible Passes

Search period start: 21 August 2014 00:00
Search period end: 31 August 2014 00:00
Orbit: 413 x 419 km, 51.6° (Epoch: 21 August)

Date Brightness Start Highest point End Pass type
(mag) Time Alt. Az. Time Alt. Az. Time Alt. Az.
21 Aug -2.3 20:55:59 10° WNW 20:59:08 40° SSW 21:02:17 10° SE visible
22 Aug -0.6 21:45:35 10° WSW 21:46:52 12° SW 21:48:08 10° SSW visible
23 Aug -1.0 20:56:09 10° W 20:58:32 18° SW 21:00:55 10° S visible
